User: anonymous   Login
Location: Boussy-Saint-Antoine
(48.6830°N, 2.5330°E)
Time: 12:49:03
(UTC+02:00)
Language:

Gurwin Techsat 1B - Orbit

View from above orbital plane
View from above orbital plane
View from above satellite
View from above satellite

Ground track
Ground track

The orbit data is extracted from the following two-line orbital elements,

1 25397U 98043D   19201.87843377 -.00000021 +00000-0 +10055-4 0  9999
2 25397 098.6896 141.6347 0000794 006.5205 353.5983 14.23667876092230
Epoch (UTC): 20 July 2019 21:04:56
Eccentricity: 0.0000794
inclination: 98.6896°
perigee height: 812 km
apogee height: 813 km
right ascension of ascending node: 141.6347°
argument of perigee: 6.5205°
revolutions per day: 14.23667876
mean anomaly at epoch: 353.5983°
orbit number at epoch: 9223

The dashed part of the orbit path shows where the satellite is in the earth's shadow,  

DLR